Location: Unspecified
(35.7250°N, 0.0000°E)
Time: 21:55:36
(UTC+00:00)

Vanguard 1 Rocket - Pass Details

Date: 20 June 2019
Orbit: 651 x 4225 km, 34.3° (Epoch: 14 July)

Event Time Altitude Azimuth Distance (km) Brightness Sun altitude
Rises 22:26:58 0° 280° (W) 4,552 11.4 -26.7°
Reaches altitude 10° 22:30:46 10° 275° (W) 3,094 10.4 -27.1°
Enters shadow 22:35:52 37° 240° (WSW) 1,331 8.1 -27.5°
Maximum altitude 22:37:11 43° 205° (SSW) 1,128 - -27.6°
Drops below altitude 10° 22:41:33 10° 133° (SE) 2,112 - -27.9°
Sets 22:43:42 0° 126° (SE) 2,959 - -28.0°
